Satellite-Ground Cal/Val Site Overpasses Predictions

Prediction of Satellite NPP Overpassing Cal/Val Site: Antarctic Dome C

Ground Cal/Val Site Location: Latitude: -75.10, Longitude: 123.35; Satellite-Ground Site NADIR distance within 100 km.

Table of predicted overpasses for the next 14.0 days since TLE Epoch: 5/8/2021
Interval Starting Time Ending Time Minimum Distance Time Minimum Distance (km)
1 05/08/2021 07:24:30 05/08/2021 07:24:57 05/08/2021 07:24:44 39.59
2 05/10/2021 15:06:58 05/10/2021 15:07:07 05/10/2021 15:07:03 94.81
3 05/11/2021 14:48:00 05/11/2021 14:48:29 05/11/2021 14:48:14 16.25
4 05/13/2021 07:30:50 05/13/2021 07:31:20 05/13/2021 07:31:05 2.58
5 05/16/2021 14:54:21 05/16/2021 14:54:50 05/16/2021 14:54:35 20.50
6 05/17/2021 14:35:39 05/17/2021 14:35:54 05/17/2021 14:35:46 86.37
7 05/18/2021 07:37:12 05/18/2021 07:37:40 05/18/2021 07:37:26 33.79
8 05/19/2021 07:18:27 05/19/2021 07:18:46 05/19/2021 07:18:37 76.28
